Location: Davayat
(45.9471°N, 3.1105°E)
Time: 21:48:55
(UTC+00:00)

Meteor 2-12 Rocket - Pass Details

Date: 23 April 2021
Orbit: 935 x 958 km, 82.5° (Epoch: 16 May)

Event Time Altitude Azimuth Distance (km) Brightness Sun altitude
Rises 22:52:30 0° 356° (N) 3,630 8.6 -30.0°
Reaches altitude 10° 22:55:13 10° 5° (N) 2,677 7.6 -30.1°
Enters shadow 23:00:52 38° 72° (ENE) 1,405 5.3 -30.3°
